RH
22 31 32 32 35 40 37 44 40 36 24 12 15 17 29 59 73 77 72 75 95 88 48 97 89 78 99 90 96 93 97 91 68 53 54 68 61 44 48 50 47 42 51 77 60
23 28 37 40 37 44 37 49 47 39 22 18 26 26 32 50 66 80 88 73 97 97 49 57 80 70 98 92 94 97 100 88 69 63 74 69 62 46 49 45 42 34 41 53 70
19 24 36 43 39 45 37 51 50 44 23 24 30 34 33 42 53 73 90 89 96 87 62 33 71 72 98 91 99 92 91 84 87 85 86 78 67 47 54 60 70 35 32 45 50
17 21 32 42 39 46 39 52 55 50 26 27 27 29 34 36 83 91 88 94 91 94 98 46 73 99 92 97 92 96 98 95 89 97 90 79 61 55 76 68 39 36 32 42 45
16 22 33 42 39 44 42 48 59 56 31 30 29 29 30 51 85 62 70 67 91 93 98 67 88 97 90 92 99 97 89 99 94 83 95 93 81 63 78 76 51 49 41 42 44
18 23 30 39 39 43 42 46 62 61 38 32 33 32 35 81 85 71 52 65 76 82 97 88 86 93 88 92 95 92 83 86 100 98 99 89 84 68 61 58 62 56 56 49 49
18 22 26 35 38 44 39 49 64 64 44 31 39 36 38 83 97 83 57 50 66 82 97 94 98 89 96 98 86 99 83 93 99 98 89 98 74 55 59 69 69 67 64 62 62
18 23 28 34 38 49 34 52 68 66 48 31 38 43 50 61 82 77 55 49 54 69 94 85 99 97 91 87 88 78 98 99 99 87 99 83 80 76 65 59 59 64 76 74 72
19 24 28 35 38 48 33 55 72 67 41 34 36 39 96 61 66 85 79 68 55 84 98 81 88 90 89 88 93 86 79 97 98 96 100 81 78 70 72 68 60 60 69 77 75
18 23 29 36 42 39 40 58 76 72 42 42 41 63 93 83 94 82 77 69 66 84 95 100 98 95 92 94 93 96 86 88 97 91 89 88 64 79 68 58 64 61 62 68 73
16 20 31 38 47 30 50 69 82 85 53 38 46 44 46 68 96 91 67 81 94 97 97 99 94 90 77 72 70 72 65 67 66 90 92 91 57 84 84 79 67 68 62 62 61
18 21 34 38 42 40 55 77 86 84 94 42 36 36 40 94 98 95 83 94 97 98 90 98 94 78 90 80 65 60 64 81 81 97 83 92 86 82 69 76 73 65 74 63 64
17 22 36 38 34 47 59 84 86 88 97 48 38 33 54 88 97 99 93 92 89 98 98 98 97 98 92 79 92 80 58 86 74 77 95 97 95 84 64 65 63 79 74 78 60
17 25 35 36 38 46 67 86 89 88 96 89 67 54 53 74 97 95 86 98 98 98 94 98 91 89 86 93 70 53 46 61 62 70 82 68 60 50 48 48 47 78 79 74 76
18 24 34 36 36 45 74 83 88 84 96 81 38 52 70 86 97 94 98 99 95 98 78 90 85 91 79 69 65 57 63 95 71 74 65 76 68 43 51 54 40 67 61 64 65
17 25 33 36 42 47 74 78 82 99 94 55 47 72 95 99 83 96 96 91 92 77 82 95 98 100 96 76 86 65 70 74 66 62 69 55 58 45 50 45 50 60 62 56 40
18 25 34 35 44 49 76 81 97 88 100 84 80 94 90 69 95 98 94 88 96 93 92 80 98 100 88 77 64 59 64 74 82 79 81 52 53 45 46 46 40 37 53 55 61
19 25 34 34 42 57 83 93 93 99 98 83 94 95 93 83 86 93 96 80 83 94 100 97 98 96 92 82 70 70 54 62 67 81 66 52 52 47 43 44 44 47 43 42 49
20 26 34 36 45 72 93 92 98 96 77 93 94 96 85 80 87 95 94 96 90 98 93 97 99 98 99 85 77 74 69 67 60 49 60 53 44 45 45 38 35 34 32 34 38
19 27 33 40 56 76 90 92 99 84 53 90 84 86 74 77 91 97 94 92 86 81 74 81 95 96 91 83 70 72 73 67 59 69 46 44 39 38 42 46 44 38 36 34 34
19 26 34 44 65 74 100 99 100 91 82 89 77 91 76 78 77 81 94 92 84 82 69 81 84 98 89 87 84 83 79 67 61 59 84 55 41 38 42 46 44 39 38 37 37
21 25 34 46 71 73 99 99 99 100 100 98 78 90 78 72 77 83 97 98 92 82 85 86 91 99 97 98 97 89 82 69 67 65 56 53 45 42 42 43 46 44 42 50 36
21 27 34 44 82 99 85 90 99 97 98 98 79 80 84 74 80 93 92 84 99 90 93 97 92 96 98 95 93 91 84 81 71 65 71 70 49 46 47 46 43 43 51 64 61
21 24 33 45 79 97 90 93 83 91 96 99 92 90 97 92 93 94 99 99 97 93 89 93 81 85 80 75 67 68 74 79 77 76 69 63 48 49 51 54 64 66 66 65 63
20 25 26 41 57 97 97 92 82 82 88 94 87 92 95 93 95 98 100 98 92 89 87 90 91 86 85 78 80 80 76 72 82 65 78 63 60 58 61 65 68 65 61 58 52
15 21 26 46 66 76 93 91 91 78 92 79 96 80 85 97 98 96 89 99 98 86 84 86 87 82 77 72 72 72 85 83 79 82 81 80 70 76 76 72 63 58 56 50 46
14 22 26 38 66 85 82 84 90 67 86 82 99 88 73 71 70 85 85 92 99 94 91 89 81 77 83 77 70 67 66 68 76 84 89 95 85 78 75 72 66 54 65 55 60
Wind_Speed
31 28 26 27 23 22 21 22 21 22 21 18 16 16 17 16 14 15 16 30 24 15 39 27 26 39 40 42 36 38 29 32 31 26 21 23 21 26 19 20 24 23 21 15 28
34 29 25 26 24 21 20 20 20 21 19 16 15 13 14 13 11 9 8 25 20 17 32 36 27 37 42 41 37 37 34 35 27 25 20 28 25 24 22 23 18 23 24 19 26
36 31 26 25 24 21 19 20 19 19 17 13 11 11 11 12 9 10 5 14 14 27 22 36 29 33 42 42 38 40 40 32 22 17 16 24 23 27 20 16 16 22 23 23 16
37 31 26 23 23 21 18 18 19 17 16 13 11 10 12 10 4 5 9 10 19 30 28 35 32 30 35 44 36 40 27 26 25 19 21 21 23 23 20 24 27 20 21 23 22
37 31 25 22 22 20 17 18 18 16 14 12 10 10 12 9 10 13 11 10 22 24 23 32 31 32 29 46 34 27 34 22 19 30 22 23 22 29 25 22 28 18 20 21 21
37 31 25 22 22 18 15 17 18 14 14 11 11 11 12 7 14 18 12 11 16 26 27 31 32 27 29 22 42 36 25 29 23 15 24 29 22 29 25 22 20 18 19 21 20
35 29 25 23 22 17 13 16 16 13 12 10 10 12 12 10 12 18 13 13 11 20 26 33 33 29 20 25 29 33 34 33 26 25 20 28 35 36 27 20 20 17 18 19 20
33 28 25 23 20 14 12 15 13 11 11 9 9 10 10 9 10 14 14 13 11 17 29 34 28 33 26 27 21 21 32 26 15 23 29 25 28 20 33 37 25 25 17 15 21
31 28 25 23 17 13 13 13 10 10 8 6 7 7 3 14 10 13 12 12 11 12 30 37 32 35 26 29 20 17 25 30 16 30 12 22 15 20 25 34 39 33 24 18 16
30 27 24 21 15 11 13 10 8 7 6 6 4 5 6 14 15 3 10 12 12 11 20 43 14 39 29 26 28 20 18 26 20 16 27 22 18 10 15 21 29 42 30 24 19
29 26 22 18 13 11 11 8 5 3 6 3 5 6 10 13 6 4 9 13 11 16 20 38 25 40 36 35 25 20 20 18 16 14 23 18 16 18 9 17 16 29 44 47 34
28 25 19 15 11 11 9 7 2 2 7 5 5 5 8 7 7 2 10 10 17 18 17 17 26 31 29 29 23 20 18 19 20 16 18 18 17 18 21 19 14 12 25 47 39
26 22 17 13 9 9 9 3 2 2 3 7 6 7 6 7 10 5 4 10 17 19 17 16 25 19 24 25 19 22 29 24 21 15 13 11 17 24 23 21 19 18 19 20 44
24 20 15 12 9 8 6 2 1 3 2 6 9 4 4 7 7 8 2 13 20 16 10 8 30 22 21 19 16 16 25 22 16 16 7 14 4 8 11 17 24 19 24 20 25
21 18 14 10 8 7 4 1 3 5 1 6 4 4 8 10 7 7 6 24 18 15 8 7 18 23 20 18 13 12 9 18 15 11 9 12 4 7 7 6 13 18 18 21 24
19 16 12 9 7 5 2 5 5 0 3 4 3 5 9 6 7 10 14 14 11 12 7 7 27 19 19 16 11 17 18 12 10 5 3 8 8 7 12 10 10 16 18 18 20
16 14 10 7 6 2 4 4 2 4 3 2 2 7 5 5 10 9 12 17 7 9 7 7 16 19 21 13 12 15 18 5 3 0 2 6 11 5 5 5 9 9 22 19 18
14 13 9 6 4 3 7 8 3 3 3 8 5 8 4 5 7 7 9 10 11 1 10 6 6 15 20 13 15 20 15 5 4 4 4 4 4 8 14 15 16 16 11 16 23
12 9 7 4 1 5 8 6 1 2 8 8 7 5 5 5 6 6 9 8 8 6 4 7 6 16 16 19 17 20 16 3 2 2 7 9 8 6 7 7 6 9 8 7 11
10 6 4 2 4 6 8 4 2 6 11 7 3 3 3 6 4 4 3 10 7 11 7 8 8 18 18 18 18 10 9 5 2 2 2 5 8 4 13 8 7 7 6 4 4
8 4 2 1 6 7 6 5 4 8 8 7 7 6 7 5 4 3 3 9 9 12 7 12 5 12 15 11 15 14 14 6 4 0 0 2 3 12 16 12 9 8 4 2 2
6 4 1 4 9 8 9 9 8 8 11 9 11 9 5 4 5 3 5 6 9 10 9 6 6 9 17 9 16 17 10 10 5 3 1 2 2 5 8 11 9 5 10 11 14
6 3 4 6 9 6 8 8 8 4 2 7 8 11 11 6 2 6 3 8 10 16 10 8 4 7 6 8 11 14 14 16 14 10 5 1 4 6 7 9 13 15 14 15 23
6 5 7 10 13 12 8 5 6 8 8 9 9 11 8 3 3 5 5 10 13 10 10 6 9 1 4 2 9 23 21 17 13 6 11 16 12 10 11 14 9 14 19 23 29
7 6 6 11 16 18 13 9 7 6 7 10 7 7 5 4 6 6 5 11 13 9 9 7 7 6 4 4 7 7 13 20 22 25 11 20 18 16 18 21 22 26 29 31 32
11 8 9 14 16 16 13 13 10 9 10 5 6 6 7 7 5 6 6 6 5 11 9 7 6 7 4 4 3 4 8 11 17 19 17 18 20 19 24 29 30 30 30 27 25
9 9 10 13 18 16 14 15 14 12 10 11 11 5 5 4 4 4 6 8 6 5 9 6 5 4 2 5 8 8 11 14 13 16 15 15 14 23 26 27 24 19 20 20 20
Wind_Direction
336 324 320 318 315 308 308 313 311 310 317 315 314 314 313 305 295 271 280 228 183 195 200 200 199 199 197 201 200 190 200 212 209 213 214 206 194 195 184 194 194 207 214 215 203
336 327 321 315 316 311 308 314 312 313 317 315 319 313 314 302 295 293 284 237 207 206 203 203 206 200 198 203 199 196 208 203 192 206 202 207 196 199 196 211 211 211 216 211 212
337 331 322 315 316 315 308 314 309 310 315 313 319 311 313 304 296 276 265 209 231 194 191 198 200 202 202 198 205 207 215 190 190 175 198 195 189 191 196 188 196 215 207 210 206
338 337 325 318 317 312 306 313 308 309 313 310 308 309 305 296 293 276 262 237 205 198 192 194 195 193 206 200 202 211 189 213 199 172 170 193 193 177 185 196 220 226 218 211 210
339 340 331 324 319 310 307 313 305 307 311 303 300 308 315 291 262 256 261 241 226 222 189 187 192 190 199 202 199 199 197 206 208 213 187 166 167 178 179 195 212 221 225 215 210
339 340 332 326 320 309 306 314 306 307 309 303 295 301 310 280 258 267 259 253 229 223 205 181 188 189 200 208 206 209 194 201 181 183 182 180 193 182 197 202 199 211 221 213 208
339 338 332 326 320 312 311 316 305 304 312 305 295 297 306 283 261 265 267 248 241 216 195 182 183 178 186 199 213 208 203 202 207 206 192 193 205 202 204 205 200 204 219 223 209
338 337 331 325 319 312 314 315 305 304 316 311 304 301 313 321 288 274 254 248 238 221 197 190 186 177 169 189 194 210 219 223 215 200 213 218 209 216 210 214 215 210 204 217 218
337 336 330 324 320 317 321 315 305 306 325 326 320 313 304 312 299 275 250 236 224 222 192 191 190 186 158 183 182 204 212 220 254 212 200 219 230 230 223 228 231 220 211 213 229
336 336 329 325 321 317 325 317 308 312 341 342 1 332 297 308 327 242 219 207 194 206 206 193 191 176 182 182 188 177 186 226 227 220 215 225 226 233 226 231 236 223 222 223 221
338 338 331 327 324 325 328 313 300 338 352 356 335 324 312 325 329 334 169 169 191 204 204 191 188 181 180 188 192 192 196 200 241 198 195 214 214 187 215 227 232 230 221 223 230
340 338 334 330 329 332 330 312 282 302 343 353 347 350 354 344 344 1 181 202 186 184 196 190 192 201 189 189 188 192 194 194 192 189 197 202 219 220 217 214 226 248 230 220 222
340 341 337 333 334 335 335 323 268 205 37 25 17 24 10 16 18 63 212 228 184 164 165 167 174 190 169 182 181 188 205 191 178 167 178 198 239 240 221 223 212 235 250 227 222
341 343 340 337 337 343 343 330 215 161 138 9 3 26 19 343 50 29 248 150 162 158 151 116 158 165 159 175 172 174 190 187 168 168 172 193 261 259 236 227 236 220 239 222 209
342 346 342 340 336 343 2 103 149 140 282 2 26 50 53 41 33 36 93 140 138 134 134 148 182 160 145 172 148 159 161 156 149 162 133 187 244 276 221 223 240 236 240 232 219
341 348 345 341 340 349 93 120 119 341 77 34 99 61 34 42 64 6 132 139 123 155 161 147 157 146 141 156 159 160 134 118 139 148 297 201 202 299 202 224 229 224 247 252 241
339 346 347 336 342 341 142 143 31 20 119 66 24 77 33 74 75 85 128 146 135 129 129 193 151 142 151 167 148 157 158 99 65 335 220 204 222 179 119 272 252 228 213 213 224
336 346 347 331 332 164 143 88 49 77 110 105 106 78 66 98 91 67 121 138 149 114 99 124 162 170 152 153 157 161 140 141 164 172 169 161 231 217 245 248 253 249 242 227 230
332 348 349 354 186 153 124 72 127 170 111 132 108 93 62 76 116 78 123 125 154 151 84 86 117 162 155 159 160 174 224 226 48 316 127 188 207 196 238 213 189 195 219 231 227
328 345 358 12 151 160 114 118 91 131 131 135 98 119 120 144 96 83 72 156 192 154 144 104 114 147 166 166 178 176 202 173 187 111 169 165 175 155 183 165 185 163 173 171 218
319 314 13 206 160 153 122 117 95 136 130 138 153 108 126 109 123 62 63 158 174 176 164 132 124 172 185 186 185 181 189 160 160 15 355 157 63 127 158 188 179 154 152 186 177
296 307 158 175 157 140 124 131 113 110 100 120 137 124 121 122 95 68 112 124 151 177 144 135 141 129 187 171 184 182 194 176 150 234 242 48 124 158 214 232 199 237 306 305 284
272 246 180 187 152 137 155 143 132 112 95 82 116 144 125 135 111 121 181 153 134 144 146 118 158 116 169 215 219 208 194 198 222 251 195 162 160 134 234 273 269 282 317 311 297
249 218 188 194 168 155 151 150 146 140 122 132 120 110 102 94 119 152 144 156 168 158 144 127 166 178 151 133 227 223 214 213 204 214 207 217 228 258 307 307 282 262 264 272 280
232 211 191 200 182 158 167 158 154 137 139 124 126 127 115 126 120 150 161 168 179 172 161 128 175 186 165 157 193 205 223 216 223 230 228 238 249 269 275 274 270 267 271 277 281
229 214 199 171 178 165 162 156 184 178 138 156 152 157 143 152 90 166 157 174 175 203 200 181 174 182 217 211 207 201 184 206 227 241 250 254 253 265 273 273 273 277 284 287 284
222 207 198 186 180 164 182 182 187 168 167 166 125 169 167 154 188 162 143 153 172 209 195 199 215 201 201 268 265 275 248 236 222 224 232 239 251 254 255 264 284 289 281 294 298